Weather in Sudzhenka

Russia / Kemerovo Oblast     56°10′56″N   86°15′09″E
temp.,
°C
wind,
m/s
gust,
m/s
humid.,
%
clouds,
%
prec.,
mm/h
press.,
hPa
HPBL,
m
9 march, tue
tue901:00−2w91393100 1.5 1008822
04:00−10wsw51190100 0.1 1014485
07:00−10wsw61290100 0.1 1019587
10:00−11sw71388100 0.0 1021699
13:00−9sw81284100 0.1 1023851
16:00−7sw7128096 0.0 1023957
19:00−9ssw6148381 0.0 1022596
22:00−9ssw6148591 0.0 1022535
10 march, wed
wed1001:00−11ssw6148696 0.0 1021481
04:00−12ssw6138798 0.0 1019398
07:00−13ssw6148784 0.0 1019365
10:00−10sw6138392 0.0 1018501
13:00−7sw598296 0.0 1017599
16:00−5sw4682100 0.0 1017595
19:00−6sse2391100 0.0 101450
22:00−6se3695100 0.0 1011118
11 march, thu
thu1101:00−3se41191100 0.0 1005342
04:000ssw81697100 0.8 1001890
07:00+1ssw81699100 2.0 1000792
10:00−4sw10178468 0.6 1004818
13:00−6sw9158583 0.7 1008905
16:00−5sw81386100 0.0 1011946
19:00−6sw71487100 0.1 1013908
22:00−8sw7148799 0.0 1015773
12 march, fri
fri1201:00−10ssw6148897 0.0 1016481
04:00−9s6158792 0.0 1012530
07:00−6ssw9169296 0.9 10081095
10:00−9sw9167167 0.5 10091144
13:00−9sw9157833 0.5 10121316
16:00−11sw91380100 0.1 10131182
19:00−14sw61287100 0.1 1014797
22:00−15sw61193100 0.1 1015907
13 march, sat
sat1301:00−18wsw61291100 0.3 1016877
04:00−19wsw61390100 0.1 1019892
07:00−22wsw61291100 0.1 1024540
10:00−21sw71291100 0.0 1026535
13:00−18sw71287100 0.0 1027641
16:00−15sw7127891 0.0 1027829
19:00−16sw6138380 0.0 1027583
22:00−17sw7148693 0.0 1028502